ATLAS 5 CENTAUR DEB, 43972

Orbit data source: Space-Track

ATLAS 5 CENTAUR DEB, 43972 is space debris in HEO originally from a launch on Wed, 17 Sep 2014 UTC launched from the Air Force Eastern Test Range (AFETR). Debris objects in space refer to the collection of defunct objects orbiting the Earth. Examples of debris include non-operational satellites, rocket bodies, and fragments generated from explosions, collisions, or faulty payload assembly.

Loading next visibility...
ATLAS 5 CENTAUR DEB details
Identifier
43972, 2014-055AB
Orbit
HEO
Last TLE update1 day ago
Origin
Flag of USULA (US)
ManufacturerUnknown
MissionSpacecraft
Bus & MotorUnknown
MassUnknown
Launch date (UTC)
2014-09-17 (10 years ago)
Launch vehicleUnknown
Launch site
Air Force Eastern Test Range (AFETR)
Object type
Payload
Rocket body
Debris
Shape & HBRUnknown
Radar Cross SectionMedium (>0.1 m² and <1 m²)

Expand to show TLE details & history

TLE from 1 day ago
0 ATLAS 5 CENTAUR DEB
1 43972U 14055AB  24339.06240453  .00000004  00000-0  00000-0 0  9999
2 43972  19.6405 199.5814 4875925  67.6160 336.2107  1.85395039 42332
Epoch: 2024-12-04T01:29Z
Definitive object data (Epoch: 2024-12-04T01:29:51.751Z)
Latitude-0.0001°
Longitude103.8311°
Altitude11,576.394 km
Speed5.492 km/s
True Right ascension13h 18m 38s
True Declination0° 00' 00"
Sunlit
Object was in daylight at TLE epoch
Visualization TLE readout
Latitude1.85908°
Longitude108.91985°
Altitude10,976.2 km
Speed5.63 km/s
Apparent Right ascension13h 36m 05s
Apparent Declination-8° 58' 04"
Sunlit
Object is in daylight
Visualization observer readout
Local Sidereal Time01:25:47
Azimuth355.063° N
Elevation-58.967°
Doppler factor1
Orbital elements
Apogee altitude35,262.543 km
Perigee altitude7,965.171 km
Semi-major axis27,991.994 km
Eccentricity0.4875925
Inclination19.6405°
RAAN199.5814°
Arg. of periapsis67.616°
True anomaly292.59681°
Mean anomaly336.2107°
Eccentric anomaly317.2454°
Mean motion0.46344 °/min
BSTARUnknown
Orbital period776.8 mins
Loading maneuver chart data...

ATLAS 5 CENTAUR DEB Visibility forecast

Observer location: undefined°, undefined

Span
Click to sort rows by Start time (UTC) header in descending order
Start Az.
Max El. time (UTC)
Max El. Az.
Max El.
End time (UTC)
End Az.
323 mins2024-12-05 05:19:32.505Z258.777° W2024-12-05 06:40:32.505Z228.859° WSW20.346°2024-12-05 10:42:32.505Z224.515° SW
132 mins2024-12-05 15:14:32.505Z224.727° SW2024-12-05 16:48:32.505Z160.554° S33.371°2024-12-05 17:26:32.505Z93.789° ESE
|